Flag for Angola

Past Weather in Uíge, Angola — Yesterday and Last 2 Weeks

Now
79 °F

Scattered clouds.


Feels Like: 81 °F
Forecast: 87 / 62 °F
Wind: 13 mph from West

Location: Luanda Airport

Current Time: Jul 2, 2020 at 2:35:45 pm

Latest Report: Jul 2, 2020 at 2:00 pm


Visibility: N/A

Pressure: 29.83 "Hg (27.19 "Hg at 811m altitude)

Humidity: 74%

Dew Point: 70 °F

Location of UígeLocation

Past Weather in Uíge — Graph

°F

Uíge Temperature Yesterday

Maximum temperature yesterday: 79 °F (at 11:00 am)
Minimum temperature yesterday: 72 °F (at 12:00 am)
Average temperature yesterday: 75 °F

High & Low Weather Summary for the Past Weeks

 TemperatureHumidityPressure
High82 °F (Jun 21, 11:00 am)100% (Jun 22, 3:00 pm)30.04 "Hg (Jun 22, 3:00 pm)
Low70 °F (Jun 19, 6:00 am)54% (Jun 25, 11:00 am)29.77 "Hg (Jun 26, 5:00 pm)
Average75 °F80%29.88 "Hg
* Reported Jun 17 1:00 pm — Jul 2 1:00 pm, Uíge. Weather by CustomWeather, © 2020

Note: Actual official high and low records may vary slightly from our data, if they occured in-between our weather recording intervals... More about our weather records

Uíge Weather History for the Previous 24 Hours

Scroll right to see more
 ConditionsComfort  
Time TempWeatherWind HumidityBarometerVisibility
1:00 pm
Thu, Jul 2
81 °FPartly sunny.8 mph70%29.86 "HgN/A
12:00 pm79 °FBroken clouds.5 mph74%29.92 "HgN/A
11:00 am79 °FBroken clouds.3 mph70%29.92 "HgN/A
10:00 am77 °FPartly sunny.3 mph74%29.95 "HgN/A
9:00 am75 °FMild.N/A78%29.95 "HgN/A
8:00 am73 °FPartly sunny.6 mph89%29.92 "Hg6 mi
7:00 am72 °FPartly sunny.3 mph94%29.89 "HgN/A
6:00 am72 °FPassing clouds.1 mph94%29.89 "Hg4 mi
5:00 am72 °FPassing clouds.No wind94%29.89 "Hg4 mi
4:00 am70 °FClear.1 mph94%29.89 "Hg5 mi
2:00 am72 °FClear.5 mph94%29.89 "Hg5 mi
1:00 am72 °FClear.5 mph94%29.89 "Hg5 mi
12:00 am72 °FClear.5 mph94%29.89 "Hg6 mi
11:00 pm
Wed, Jul 1
73 °FClear.7 mph89%29.89 "Hg6 mi
10:00 pm73 °FPassing clouds.6 mph89%29.89 "Hg6 mi
9:00 pm73 °FPassing clouds.7 mph83%29.89 "HgN/A
8:00 pm73 °FClear.8 mph83%29.86 "Hg10 mi
7:00 pm75 °FClear.7 mph78%29.83 "Hg10 mi
6:00 pm75 °FPassing clouds.10 mph78%29.83 "HgN/A
5:00 pm77 °FSunny.9 mph79%29.80 "Hg10 mi
4:00 pm79 °FSunny.10 mph74%29.80 "Hg10 mi
3:00 pm79 °FSunny.10 mph74%29.83 "Hg10 mi
2:00 pm79 °FSunny.9 mph74%29.83 "Hg10 mi
Weather by CustomWeather, © 2020

See weather overview